This is the latest recevied weather packets stored in our database for station/object IU3OVK-13. If no packets are shown the sender has not sent any weather packets the latest 10 day(s).
| Time | Temp. | Humidity | Pressure | Rain* | Wind** | Luminosity | Snow |
|---|---|---|---|---|---|---|---|
| 1777840606 | 15.56° C | 99% | 1011.3 hPa | - | - | - | - |
| 1777839985 | 16.67° C | 99% | 1011 hPa | - | - | - | - |
| 1777839365 | 16.67° C | 99% | 1010.9 hPa | - | - | - | - |
| 1777838745 | 16.67° C | 99% | 1011.6 hPa | - | - | - | - |
| 1777838125 | 17.22° C | 99% | 1011.6 hPa | - | - | - | - |
| 1777837505 | 17.78° C | 99% | 1010.8 hPa | - | - | - | - |
| 1777836885 | 17.78° C | 99% | 1010.7 hPa | - | - | - | - |
| 1777836264 | 18.33° C | 99% | 1011 hPa | - | - | - | - |
| 1777835644 | 18.33° C | 99% | 1010.7 hPa | - | - | - | - |
| 1777835025 | 18.33° C | 99% | 1011 hPa | - | - | - | - |
| 1777834404 | 18.89° C | 99% | 1010.9 hPa | - | - | - | - |
| 1777833784 | 18.89° C | 99% | 1010.5 hPa | - | - | - | - |
| 1777831923 | 19.44° C | 99% | 1010.5 hPa | - | - | - | - |
| 1777830683 | 20° C | 99% | 1010.3 hPa | - | - | - | - |
| 1777830063 | 20.56° C | 99% | 1010.5 hPa | - | - | - | - |
| 1777829443 | 20.56° C | 99% | 1010.4 hPa | - | - | - | - |
| 1777828822 | 21.11° C | 99% | 1010.2 hPa | - | - | - | - |
| 1777828202 | 21.67° C | 93% | 1010.3 hPa | - | - | - | - |
| 1777827582 | 21.67° C | 85% | 1010.3 hPa | - | - | - | - |
| 1777826962 | 22.22° C | 82% | 1010.1 hPa | - | - | - | - |
| 1777826342 | 22.22° C | 81% | 1010.1 hPa | - | - | - | - |
| 1777825101 | 22.22° C | 80% | 1010 hPa | - | - | - | - |
| 1777824481 | 22.22° C | 79% | 1010.2 hPa | - | - | - | - |
| 1777822621 | 23.33° C | 77% | 1009.3 hPa | - | - | - | - |
| 1777822001 | 23.33° C | 76% | 1008.6 hPa | - | - | - | - |
* Rain since midnight (hover to see other rain measurements)
** Current wind speed in m/s (hover to see current wind gust speed)